SCP
0 0 0 0 0 0 0 0 0 0 0 0 0 0 0 0 0 0 0 0 0 0 0 0 0 0 0 0 0 0 0 0 0 -0 0 0 0 0 0 0 0 0 0 0 0 0 0 0 0 0 0 0 -0 -0
0 0 0 0 0 0 0 0 0 0 0 0 0 0 0 0 0 0 0 0 0 0 0 0 0 0 -0 -0 0 0 0 0 0 0 0 0 0 0 0 0 0 0 0 0 0 0 0 0 0 0 0 0 0 0
0 0 0 0 0 0 0 0 0 0 0 0 0 0 0 0 0 0 0 0 0 0 0 0 0 0 0 -0 0 0 0 0 0 0 0 0 0 0 0 0 0 0 0 0 0 0 0 0 0 0 0 0 0 0
0 0 0 0 0 0 0 0 0 0 0 0 0 0 0 0 0 0 0 0 0 0 0 0 0 0 0 0 0 -0 0 0 0 0 0 0 0 0 0 0 0 0 0 0 0 0 0 0 0 0 0 0 0 0
0 0 0 0 0 0 0 0 0 0 0 0 0 0 0 0 0 0 0 0 0 0 0 0 0 0 0 0 0 0 0 0 0 0 0 0 0 0 0 0 0 0 0 0 0 0 0 0 0 0 0 0 0 0
0 0 0 0 0 0 0 0 0 0 0 0 0 0 0 0 0 0 0 0 0 0 0 0 0 0 0 -0 -0 0 0 0 0 0 0 0 -0 0 0 0 0 0 0 0 0 0 0 0 0 0 0 0 0 0
0 0 0 0 0 0 0 0 0 0 0 0 0 0 0 0 0 0 0 0 0 0 0 0 0 0 0 -0 0 -0 -0 -0 -0 0 -0 0 -0 0 0 0 0 0 0 0 0 0 0 0 0 0 0 0 0 0
0 0 0 0 0 0 0 0 0 0 0 0 0 0 0 0 0 0 0 0 0 0 0 0 0 0 0 0 -0 0 -0 -0 -0 -0 -0 0 0 0 0 0 -0 -0 0 0 0 0 0 0 0 0 0 0 0 0
0 0 0 0 0 0 0 0 0 0 0 0 0 0 0 0 0 0 0 0 0 0 0 0 0 0 0 0 -0 0 -0 -0 -0 -0 -0 -0 0 0 0 -0 -0 -0 0 0 -0 0 0 0 0 0 0 0 0 0
0 0 0 0 0 0 0 0 0 0 0 0 0 0 0 0 0 0 0 0 0 0 0 0 0 0 0 0 -0 -0 -0 -0 -0 -0 -0 0 0 0 0 0 0 0 0 0 0 0 0 0 0 0 0 0 0 0
0 0 -0 -0 0 0 0 0 0 0 0 0 0 0 0 0 0 0 0 0 0 0 0 0 0 0 0 0 -0 -0 -0 -0 -0 -0 -0 0 0 0 0 0 0 0 0 0 0 0 0 -0 -0 -0 0 0 0 0
0 0 0 0 0 0 0 0 0 0 0 0 0 0 0 0 0 0 0 0 0 0 0 0 0 0 0 0 -0 -0 -0 -0 -0 -0 -0 0 0 0 0 0 0 0 0 0 0 0 0 0 -0 -0 0 0 0 0
0 0 0 0 0 0 0 0 0 0 0 0 0 0 0 0 0 0 0 0 0 0 0 0 0 0 0 0 -0 -0 0 -0 -0 -0 -0 0 0 0 0 0 0 0 0 0 0 0 0 0 0 -0 0 0 0 0
0 0 0 0 0 0 0 0 0 0 0 0 0 0 0 0 0 0 0 0 0 0 0 0 0 0 0 0 -0 -0 0 0 -0 -0 0 -0 0 0 0 0 0 0 0 0 0 0 0 0 0 0 0 0 0 0
0 0 0 0 0 0 0 0 0 0 0 0 0 0 0 0 0 0 0 0 0 0 0 0 0 0 0 0 0 0 0 0 0 0 0 -0 0 0 0 0 0 0 0 0 0 0 0 0 0 0 0 0 0 0
0 0 0 0 0 0 0 0 0 0 0 0 0 0 0 0 0 0 0 0 0 0 0 0 0 0 0 0 0 -0 0 0 0 0 -0 -0 0 0 0 0 0 -0 -0 -0 -0 -0 -0 -0 -0 0 0 -0 -0 -0
0 0 0 0 0 0 0 0 0 0 0 0 0 0 0 0 0 0 0 0 0 0 0 0 0 0 0 0 0 0 0 0 0 0 -0 0 0 0 -0 0 0 -0 -0 -0 -0 -0 0 -0 -0 -0 -0 -0 0 0
0 0 0 0 0 0 0 0 0 0 0 0 0 0 0 0 0 0 0 0 0 0 0 0 0 0 0 0 0 0 0 0 0 0 0 0 0 -0 0 0 0 -0 -0 -0 -0 -0 0 0 0 0 0 0 0 0
0 0 0 0 0 0 0 0 0 0 0 0 0 0 0 0 0 0 0 0 0 0 0 0 0 -0 0 0 0 0 0 0 0 0 0 0 0 0 -0 0 -0 -0 0 -0 -0 -0 -0 -0 0 0 0 -0 0 -0
0 0 0 0 0 0 0 0 0 0 0 0 0 0 0 0 0 0 0 0 0 0 0 0 0 0 0 0 0 0 0 0 0 0 0 0 0 0 0 -0 0 0 0 -0 -0 0 0 0 -0 -0 -0 -0 -0 -0
0 0 0 0 0 0 0 0 0 0 0 0 0 0 0 0 0 0 0 0 0 0 0 0 0 0 0 0 0 0 0 0 0 0 0 0 0 0 0 0 0 0 0 0 0 -0 -0 -0 0 -0 0 -0 0 0
0 0 0 0 0 0 0 0 0 0 0 0 0 0 0 0 0 0 0 0 -0 -0 0 0 0 0 0 0 0 0 0 0 0 0 0 0 0 0 0 0 0 0 0 0 0 0 -0 0 0 0 -0 0 0 0
0 0 0 0 0 0 0 0 0 0 0 0 0 0 0 0 0 0 0 0 -0 0 0 0 0 0 0 0 0 0 0 0 0 0 0 0 0 0 0 0 0 0 0 0 0 0 0 0 0 0 0 0 0 0
0 0 0 0 0 0 0 0 0 0 0 0 0 0 0 0 0 0 -0 0 0 0 0 0 0 0 0 0 0 0 0 0 0 0 0 0 0 0 0 0 0 0 0 0 0 0 0 0 0 0 0 0 0 0
0 0 0 0 0 0 0 0 0 0 0 0 0 0 0 0 0 0 -0 0 0 0 0 0 0 0 0 0 0 0 0 0 0 0 0 0 0 0 0 0 0 0 0 0 0 0 0 0 0 0 0 0 0 0
0 0 0 0 0 0 0 0 0 0 0 0 0 0 0 0 0 -0 0 0 0 0 0 -0 -0 0 0 0 0 0 0 0 0 0 0 0 0 0 0 0 0 0 0 0 0 0 0 0 0 0 0 0 0 0
0 0 0 0 0 0 0 0 0 0 0 0 0 0 -0 -0 0 0 0 0 0 0 0 0 0 0 0 0 0 0 0 -0 -0 0 0 0 0 0 0 0 0 0 0 0 0 0 0 0 0 0 0 0 0 0
0 0 0 0 0 0 0 0 0 0 0 0 0 0 -0 0 0 0 0 0 0 0 0 0 0 0 0 0 0 0 0 0 0 0 0 0 0 0 0 0 0 0 0 0 -0 -0 -0 -0 -0 0 0 0 0 0
0 0 0 -0 0 0 0 0 0 0 0 0 -0 -0 -0 0 0 0 0 0 0 0 0 0 0 0 0 0 0 0 0 0 0 0 0 0 0 0 0 0 0 0 0 0 0 0 0 0 0 0 0 0 0 0
0 -0 0 0 0 0 0 0 0 0 0 0 0 -0 0 0 0 0 0 0 0 0 0 0 0 0 0 0 0 0 0 0 0 0 0 0 0 0 0 0 0 0 0 0 0 0 0 0 0 0 0 0 0 0
0 -0 0 0 0 0 0 0 0 0 0 0 0 0 0 0 0 0 0 0 0 0 0 0 0 0 0 0 0 0 0 0 0 0 0 0 0 0 0 0 0 0 0 0 0 0 0 0 0 0 0 0 0 0
0 0 0 0 0 0 0 0 0 0 0 0 0 0 0 0 0 0 0 0 0 0 0 0 0 0 0 0 0 0 0 0 0 0 0 0 0 0 0 0 0 0 0 0 0 0 0 0 0 0 0 0 0 0
0 0 0 0 0 0 0 0 0 0 0 0 0 0 0 0 0 0 0 0 0 0 0 0 0 0 0 0 0 0 0 0 0 0 0 0 0 0 0 0 0 0 0 0 0 0 0 0 0 0 0 0 0 0
Wind_Speed_500mb
70 69 69 66 64 60 59 61 58 56 54 45 44 43 34 24 15 11 14 16 12 14 39 28 19 25 20 17 6 20 19 2 7 9 5 8 6 8 8 7 12 9 14 8 9 8 12 55 41 19 16 35 41 42
77 76 76 71 69 63 61 63 58 60 51 46 43 39 29 28 15 12 13 11 18 27 40 60 52 43 46 42 31 10 11 11 8 5 5 6 6 7 11 8 9 6 5 9 7 8 19 52 31 37 26 34 43 45
74 75 75 74 68 72 69 66 55 61 48 43 43 36 26 26 17 17 17 17 22 22 43 17 8 6 26 22 20 16 13 9 8 9 5 3 7 3 7 7 9 6 8 6 11 4 25 43 48 43 49 52 58 65
66 70 75 74 64 69 67 73 51 60 43 39 38 29 24 22 19 16 19 17 14 12 10 17 26 30 20 20 26 38 47 32 28 28 5 3 5 1 4 7 6 7 18 16 8 10 23 50 52 48 53 60 68 75
66 64 65 70 66 67 69 67 48 53 44 36 33 24 23 19 17 18 24 18 17 9 9 31 42 4 9 21 30 31 30 36 16 7 5 3 5 7 4 4 4 15 9 8 7 30 22 31 46 53 59 63 68 76
65 67 66 62 60 60 64 57 53 47 35 33 25 24 19 16 14 10 2 8 8 10 9 8 20 10 12 15 9 9 13 20 14 6 2 1 3 6 5 6 6 35 38 24 9 31 22 29 45 55 69 72 80 83
66 67 68 66 65 62 61 58 53 45 34 27 21 21 17 15 15 9 6 8 4 3 6 12 14 13 19 15 7 5 6 8 8 5 3 3 8 6 3 5 27 37 39 30 15 13 32 50 34 56 71 75 85 92
68 66 71 64 65 63 54 64 56 41 27 20 20 19 16 14 15 10 10 13 12 10 9 6 9 14 8 6 5 6 6 7 3 4 2 5 6 6 2 11 22 27 18 27 31 36 40 41 49 58 68 72 81 80
71 70 66 66 63 56 54 63 53 35 25 24 21 16 13 14 13 17 13 6 11 13 7 6 6 6 10 5 6 4 4 4 3 2 2 3 4 5 10 22 16 20 14 19 27 33 39 42 47 52 61 62 71 71
73 72 68 68 60 58 61 58 52 37 30 27 20 12 11 11 18 13 5 8 16 11 14 10 9 8 7 4 3 3 3 3 1 2 6 4 1 6 17 5 10 15 17 21 23 27 30 37 45 48 54 60 63 63
72 69 69 71 63 59 66 58 45 40 34 31 19 12 15 24 18 10 8 10 13 8 14 15 20 11 9 6 4 4 4 2 3 3 0 2 4 7 17 9 17 19 15 27 26 24 28 34 41 43 40 43 47 52
71 67 67 56 70 67 66 58 50 49 33 32 15 18 20 14 9 7 8 8 8 8 12 10 10 15 9 10 6 4 4 2 2 5 2 3 4 17 15 23 24 24 20 19 21 27 27 32 36 41 41 44 47 48
69 68 60 64 76 74 61 54 49 49 34 26 14 11 11 11 9 12 16 8 8 11 13 8 5 6 6 10 7 2 5 3 4 2 3 2 9 14 15 21 20 19 18 20 23 26 31 37 39 39 41 39 40 40
65 66 50 73 74 63 58 54 52 53 36 13 14 11 12 11 13 12 11 7 11 9 9 5 6 5 4 6 4 5 1 4 2 2 4 3 1 17 15 14 17 11 6 15 19 26 31 34 37 36 34 34 33 35
64 45 62 67 60 61 55 53 56 60 19 12 12 11 15 14 10 11 18 6 10 8 3 3 4 3 4 5 4 3 5 1 3 3 5 19 9 15 15 16 18 10 14 18 21 25 31 32 32 32 27 26 26 31
36 68 71 64 57 50 49 50 58 34 8 10 12 7 8 9 10 10 15 11 13 9 2 3 2 3 4 3 5 5 2 4 4 8 21 28 22 18 16 15 16 16 19 18 23 28 31 30 29 29 26 22 23 25
73 45 55 58 51 50 49 48 32 15 11 9 12 22 14 5 11 12 16 13 17 7 3 3 4 1 4 5 4 2 1 3 6 15 45 35 31 23 22 20 19 21 21 21 24 27 26 25 24 26 29 30 31 29
46 46 62 59 60 54 46 17 11 10 13 19 9 16 28 14 9 16 19 19 14 9 9 4 4 3 3 4 2 2 4 7 16 32 26 19 20 24 20 19 20 21 23 24 24 25 23 23 22 23 29 32 31 30
34 61 61 62 60 26 16 16 11 8 20 8 16 12 14 13 24 20 14 16 21 11 7 7 5 5 4 3 3 3 11 13 30 34 35 27 19 20 25 24 23 23 24 24 24 23 22 21 22 27 30 31 26 30
41 49 56 60 35 9 8 8 13 8 10 12 13 14 11 10 18 23 21 24 22 12 8 6 5 5 4 9 7 2 12 17 29 29 25 30 36 29 23 23 26 25 25 25 25 25 29 29 28 28 28 29 30 33
53 52 61 44 11 4 6 8 11 9 5 5 8 13 7 12 10 15 18 23 16 8 7 10 9 6 9 15 10 4 11 17 18 15 19 22 23 25 24 27 30 33 30 28 27 28 27 28 29 29 29 28 26 27
46 47 35 24 8 6 7 11 6 5 3 3 9 11 6 9 8 15 18 16 9 16 14 10 4 12 15 12 7 6 6 13 14 12 14 16 18 19 18 17 31 37 36 32 26 22 26 27 27 28 28 28 28 28
37 26 23 12 7 4 5 8 4 6 7 7 9 7 4 7 9 20 11 14 15 17 15 14 15 18 17 14 14 11 7 8 10 14 15 17 17 16 14 11 13 22 26 33 28 21 22 27 26 28 29 29 28 28
32 15 9 9 10 7 5 6 8 5 3 3 4 5 9 8 13 9 5 7 13 21 23 25 26 23 23 18 16 12 7 10 10 11 16 16 11 7 7 11 17 20 22 25 37 38 35 32 31 29 30 31 30 29
3 4 3 4 7 7 9 8 6 4 3 5 4 4 7 10 7 5 5 6 17 27 29 33 28 24 20 20 21 19 11 10 14 13 14 14 12 11 8 2 2 15 22 23 27 36 38 33 36 34 36 32 34 34
7 11 12 12 7 5 3 6 7 8 6 7 6 5 5 3 4 4 5 13 23 37 40 35 32 26 18 26 24 20 12 10 13 11 9 10 11 7 5 2 4 4 11 18 15 28 26 24 33 45 48 49 38 40
4 4 6 9 5 2 4 6 5 4 7 7 6 6 3 5 6 4 9 17 34 42 28 25 25 21 20 18 24 15 8 9 13 10 6 11 15 10 10 10 10 6 11 15 17 15 17 17 21 21 26 31 33 39
5 3 1 2 3 6 4 4 4 5 5 5 9 6 7 5 3 9 11 24 43 35 24 23 20 20 20 19 24 20 15 9 8 8 9 12 6 5 8 11 12 14 15 14 14 13 13 14 13 13 14 15 18 23
4 3 4 4 6 7 6 4 2 3 6 10 6 6 7 5 9 25 37 42 39 38 45 37 28 16 12 16 18 13 9 6 8 12 12 8 7 10 9 8 12 11 8 9 11 10 9 7 16 11 11 18 24 24
5 11 4 5 4 4 2 3 3 2 4 9 9 6 8 22 37 39 41 47 48 37 33 29 24 14 16 16 15 11 7 5 7 7 4 5 8 9 10 7 6 4 4 6 8 11 14 18 21 25 23 22 24 25
3 10 5 5 2 3 2 9 12 11 8 13 16 18 19 14 34 40 36 37 35 35 28 26 22 16 18 17 15 13 12 11 11 10 9 4 1 2 4 7 7 9 10 12 12 13 14 16 18 20 22 23 16 13
9 11 4 2 4 9 9 8 10 13 15 19 10 21 20 10 12 12 23 31 28 27 26 26 27 25 21 19 12 9 7 9 5 2 1 2 5 6 4 4 7 7 6 7 12 15 14 13 12 16 17 20 29 31
6 8 5 5 4 4 7 8 7 6 6 6 10 13 17 5 8 9 16 25 23 21 24 21 21 14 13 13 10 8 7 7 5 2 1 3 6 6 7 7 7 9 11 13 15 19 21 24 25 25 30 30 27 26
Wind_Direction_500mb
284 284 284 286 287 291 295 300 309 306 303 298 307 315 309 312 290 298 298 302 266 259 286 262 262 259 276 267 267 315 329 3 303 349 344 346 308 338 295 283 340 319 330 333 318 315 338 348 329 353 304 308 321 328
280 283 281 280 279 281 287 288 302 299 292 293 302 308 299 303 294 266 283 292 288 271 273 294 283 268 257 269 274 288 260 297 270 314 350 305 310 316 312 321 5 344 358 307 328 324 307 317 318 345 346 347 354 357
276 275 277 278 275 278 277 282 286 293 284 288 300 299 289 299 294 261 267 282 299 288 310 288 261 308 312 294 274 232 265 249 257 280 300 278 288 325 320 348 306 297 32 270 304 22 322 337 2 3 7 19 26 40
286 276 274 274 276 278 278 283 282 292 272 283 290 286 286 293 298 279 269 269 261 291 287 282 309 304 300 292 281 282 278 266 282 299 270 277 278 60 318 315 313 322 315 314 272 309 333 1 9 16 31 38 46 58
293 284 286 277 277 274 286 270 273 281 268 278 282 270 277 286 291 284 288 277 241 237 289 294 310 180 305 304 307 300 293 272 273 254 228 262 319 334 337 259 25 332 326 347 320 321 357 4 18 30 45 44 53 65
286 288 287 288 277 272 273 262 265 260 261 263 261 259 271 276 273 305 293 226 215 247 291 297 305 267 331 341 326 318 300 265 243 249 260 75 348 333 330 335 293 340 338 338 291 336 24 35 41 50 55 56 63 67
280 280 283 282 282 274 271 251 258 246 252 247 244 257 259 255 254 228 179 163 239 295 262 289 287 283 321 329 322 297 296 260 275 292 343 130 22 8 21 355 318 338 353 19 18 355 45 51 45 61 68 68 76 80
281 278 279 276 282 269 265 255 249 240 234 226 234 245 245 236 257 262 170 203 213 245 255 273 278 299 325 304 313 332 314 289 285 354 48 25 15 346 12 324 349 356 23 57 68 81 85 79 83 81 82 80 77 76
283 277 284 279 279 266 257 241 231 216 208 208 220 226 221 233 227 186 187 233 251 220 269 248 271 286 317 285 285 292 283 266 320 147 64 101 1 24 298 326 2 18 57 82 88 90 92 83 85 87 87 82 85 86
279 273 281 284 275 257 242 224 224 195 185 195 192 179 223 199 158 161 208 203 189 214 229 250 246 265 296 301 258 275 249 258 213 78 108 59 174 305 356 7 79 54 91 102 80 79 95 92 103 100 96 94 98 99
277 274 277 280 267 246 224 213 192 183 183 177 178 207 180 157 167 183 204 210 183 223 217 230 230 265 269 237 292 226 300 317 262 116 110 117 22 55 12 108 107 96 110 101 96 101 104 105 113 110 102 99 98 99
275 279 277 270 255 232 209 194 183 186 180 174 173 154 165 188 185 205 199 199 213 236 207 205 233 226 264 226 248 214 275 332 274 121 122 87 74 51 40 129 118 100 102 98 101 97 100 105 110 110 108 105 104 102
272 276 273 249 228 208 199 187 182 184 164 157 184 173 197 177 181 207 200 191 207 204 199 198 261 233 233 226 242 241 266 262 235 62 73 94 68 114 100 135 129 110 79 98 96 100 110 114 116 114 110 107 104 103
275 274 259 230 210 198 183 176 182 168 158 171 163 201 220 191 210 192 203 185 199 183 175 205 257 245 231 227 207 236 198 150 240 176 83 190 270 159 147 161 175 161 101 129 118 116 119 120 119 118 119 120 119 114
279 260 217 202 192 184 169 175 172 165 164 176 180 225 213 218 210 201 209 237 195 181 187 217 215 240 243 256 222 310 215 357 329 61 176 181 236 174 176 186 193 173 146 134 133 133 132 130 127 123 122 124 127 128
234 178 181 184 178 161 164 167 164 165 179 210 215 234 235 198 195 190 193 201 181 180 166 140 154 217 245 259 232 223 256 124 176 145 165 177 167 176 170 146 152 160 154 144 141 142 140 137 133 130 127 127 130 129
175 173 178 163 154 158 162 153 153 196 206 216 227 216 208 244 177 164 190 187 175 172 186 165 205 185 301 244 221 185 350 101 167 169 184 186 181 151 163 159 152 163 163 155 147 146 146 145 140 136 133 131 131 129
176 175 156 151 153 151 155 151 160 186 233 228 212 207 201 210 175 197 199 186 169 183 172 192 150 215 248 251 94 131 119 117 149 154 154 157 176 186 182 169 160 157 157 157 159 160 161 159 152 143 142 139 135 131
167 154 152 157 152 125 152 182 190 239 222 221 222 206 180 203 220 216 212 196 199 189 180 183 188 202 239 193 281 178 162 142 151 154 160 169 179 185 179 178 173 167 165 164 165 170 170 168 164 160 158 155 153 151
132 145 153 154 153 130 137 174 196 243 220 209 196 184 171 191 203 211 214 203 196 190 194 207 214 194 191 166 313 173 161 153 153 153 159 169 178 188 191 187 181 175 175 172 167 164 167 168 172 175 173 170 171 172
134 148 156 162 169 204 202 189 206 230 220 196 179 180 190 197 196 179 174 177 188 206 204 209 207 199 166 143 167 128 168 164 164 171 181 182 189 195 196 192 197 189 186 182 181 177 179 179 176 176 179 180 177 177
144 158 169 181 233 236 239 217 228 215 195 181 178 182 174 187 191 206 196 193 217 221 225 227 248 200 179 160 154 145 147 180 180 162 155 160 172 183 186 187 187 194 196 192 184 181 177 172 174 172 171 172 174 179
148 148 161 197 209 216 269 203 232 213 209 169 148 172 185 186 187 175 200 215 221 218 211 222 190 171 164 157 140 131 137 150 156 168 162 152 143 139 144 158 184 196 201 217 213 193 191 181 179 178 175 177 178 179
142 163 191 195 201 220 201 219 215 226 193 193 207 186 155 148 163 209 215 195 199 199 191 171 156 147 150 146 150 135 116 131 133 139 164 156 157 182 209 238 233 222 219 218 219 213 206 202 195 197 196 194 192 190
108 193 187 198 217 218 207 180 185 185 205 197 223 179 148 163 196 194 203 214 183 171 159 151 158 168 153 156 154 147 118 106 162 154 152 172 186 187 181 128 108 210 210 213 204 207 209 212 210 214 214 219 217 216
217 204 202 203 171 228 168 164 177 196 201 190 217 115 138 150 170 231 195 202 176 168 169 176 173 168 171 169 165 150 147 135 120 136 163 180 177 165 154 198 223 207 184 173 197 203 210 217 217 225 227 219 224 225
223 207 214 218 234 285 275 238 244 213 195 200 166 133 168 215 208 246 189 165 169 165 162 171 178 173 172 168 167 151 140 123 132 112 85 168 162 163 139 98 89 122 156 159 159 178 202 221 232 239 231 230 241 212
275 303 221 130 220 230 262 258 206 205 191 157 123 164 184 221 158 161 161 148 155 165 147 146 129 143 152 154 157 154 144 145 143 140 115 109 119 174 172 157 147 128 138 144 148 156 163 173 177 191 205 214 222 232
271 242 215 236 225 231 240 243 253 225 163 170 157 162 172 242 133 146 147 153 157 148 137 131 126 121 136 134 140 154 156 183 187 171 158 137 114 98 136 147 166 172 174 181 195 206 195 247 220 211 265 277 274 270
245 199 226 233 233 228 344 214 340 131 132 134 117 123 131 105 110 126 144 145 143 140 135 127 124 137 135 145 140 147 164 198 195 185 195 145 140 142 144 134 130 131 150 179 204 223 243 259 252 258 263 285 276 266
219 196 241 238 285 350 23 100 89 97 103 78 84 96 96 100 100 113 115 127 131 134 124 113 110 113 133 123 126 143 142 142 123 103 74 66 325 320 282 253 241 239 235 229 235 266 267 263 252 255 261 267 263 254
190 203 230 161 87 79 79 60 56 83 106 124 102 101 101 90 72 80 140 153 148 140 128 118 104 107 110 98 97 132 139 136 140 170 225 287 313 322 278 257 260 277 270 269 269 254 254 267 270 259 267 274 259 260
188 190 197 128 107 69 52 58 40 95 110 96 119 101 112 65 84 101 123 142 147 148 140 131 115 109 135 126 110 102 94 82 73 51 26 327 296 313 345 334 319 308 297 288 281 281 273 265 277 273 263 268 270 271
Wind_Speed_850mb
70 69 69 66 64 60 59 61 58 56 54 45 44 43 34 24 15 11 14 16 12 14 39 28 19 25 20 17 6 20 19 2 7 9 5 8 6 8 8 7 12 9 14 8 9 8 12 55 41 19 16 35 41 42
77 76 76 71 69 63 61 63 58 60 51 46 43 39 29 28 15 12 13 11 18 27 40 60 52 43 46 42 31 10 11 11 8 5 5 6 6 7 11 8 9 6 5 9 7 8 19 52 31 37 26 34 43 45
74 75 75 74 68 72 69 66 55 61 48 43 43 36 26 26 17 17 17 17 22 22 43 17 8 6 26 22 20 16 13 9 8 9 5 3 7 3 7 7 9 6 8 6 11 4 25 43 48 43 49 52 58 65
66 70 75 74 64 69 67 73 51 60 43 39 38 29 24 22 19 16 19 17 14 12 10 17 26 30 20 20 26 38 47 32 28 28 5 3 5 1 4 7 6 7 18 16 8 10 23 50 52 48 53 60 68 75
66 64 65 70 66 67 69 67 48 53 44 36 33 24 23 19 17 18 24 18 17 9 9 31 42 4 9 21 30 31 30 36 16 7 5 3 5 7 4 4 4 15 9 8 7 30 22 31 46 53 59 63 68 76
65 67 66 62 60 60 64 57 53 47 35 33 25 24 19 16 14 10 2 8 8 10 9 8 20 10 12 15 9 9 13 20 14 6 2 1 3 6 5 6 6 35 38 24 9 31 22 29 45 55 69 72 80 83
66 67 68 66 65 62 61 58 53 45 34 27 21 21 17 15 15 9 6 8 4 3 6 12 14 13 19 15 7 5 6 8 8 5 3 3 8 6 3 5 27 37 39 30 15 13 32 50 34 56 71 75 85 92
68 66 71 64 65 63 54 64 56 41 27 20 20 19 16 14 15 10 10 13 12 10 9 6 9 14 8 6 5 6 6 7 3 4 2 5 6 6 2 11 22 27 18 27 31 36 40 41 49 58 68 72 81 80
71 70 66 66 63 56 54 63 53 35 25 24 21 16 13 14 13 17 13 6 11 13 7 6 6 6 10 5 6 4 4 4 3 2 2 3 4 5 10 22 16 20 14 19 27 33 39 42 47 52 61 62 71 71
73 72 68 68 60 58 61 58 52 37 30 27 20 12 11 11 18 13 5 8 16 11 14 10 9 8 7 4 3 3 3 3 1 2 6 4 1 6 17 5 10 15 17 21 23 27 30 37 45 48 54 60 63 63
72 69 69 71 63 59 66 58 45 40 34 31 19 12 15 24 18 10 8 10 13 8 14 15 20 11 9 6 4 4 4 2 3 3 0 2 4 7 17 9 17 19 15 27 26 24 28 34 41 43 40 43 47 52
71 67 67 56 70 67 66 58 50 49 33 32 15 18 20 14 9 7 8 8 8 8 12 10 10 15 9 10 6 4 4 2 2 5 2 3 4 17 15 23 24 24 20 19 21 27 27 32 36 41 41 44 47 48
69 68 60 64 76 74 61 54 49 49 34 26 14 11 11 11 9 12 16 8 8 11 13 8 5 6 6 10 7 2 5 3 4 2 3 2 9 14 15 21 20 19 18 20 23 26 31 37 39 39 41 39 40 40
65 66 50 73 74 63 58 54 52 53 36 13 14 11 12 11 13 12 11 7 11 9 9 5 6 5 4 6 4 5 1 4 2 2 4 3 1 17 15 14 17 11 6 15 19 26 31 34 37 36 34 34 33 35
64 45 62 67 60 61 55 53 56 60 19 12 12 11 15 14 10 11 18 6 10 8 3 3 4 3 4 5 4 3 5 1 3 3 5 19 9 15 15 16 18 10 14 18 21 25 31 32 32 32 27 26 26 31
36 68 71 64 57 50 49 50 58 34 8 10 12 7 8 9 10 10 15 11 13 9 2 3 2 3 4 3 5 5 2 4 4 8 21 28 22 18 16 15 16 16 19 18 23 28 31 30 29 29 26 22 23 25
73 45 55 58 51 50 49 48 32 15 11 9 12 22 14 5 11 12 16 13 17 7 3 3 4 1 4 5 4 2 1 3 6 15 45 35 31 23 22 20 19 21 21 21 24 27 26 25 24 26 29 30 31 29
46 46 62 59 60 54 46 17 11 10 13 19 9 16 28 14 9 16 19 19 14 9 9 4 4 3 3 4 2 2 4 7 16 32 26 19 20 24 20 19 20 21 23 24 24 25 23 23 22 23 29 32 31 30
34 61 61 62 60 26 16 16 11 8 20 8 16 12 14 13 24 20 14 16 21 11 7 7 5 5 4 3 3 3 11 13 30 34 35 27 19 20 25 24 23 23 24 24 24 23 22 21 22 27 30 31 26 30
41 49 56 60 35 9 8 8 13 8 10 12 13 14 11 10 18 23 21 24 22 12 8 6 5 5 4 9 7 2 12 17 29 29 25 30 36 29 23 23 26 25 25 25 25 25 29 29 28 28 28 29 30 33
53 52 61 44 11 4 6 8 11 9 5 5 8 13 7 12 10 15 18 23 16 8 7 10 9 6 9 15 10 4 11 17 18 15 19 22 23 25 24 27 30 33 30 28 27 28 27 28 29 29 29 28 26 27
46 47 35 24 8 6 7 11 6 5 3 3 9 11 6 9 8 15 18 16 9 16 14 10 4 12 15 12 7 6 6 13 14 12 14 16 18 19 18 17 31 37 36 32 26 22 26 27 27 28 28 28 28 28
37 26 23 12 7 4 5 8 4 6 7 7 9 7 4 7 9 20 11 14 15 17 15 14 15 18 17 14 14 11 7 8 10 14 15 17 17 16 14 11 13 22 26 33 28 21 22 27 26 28 29 29 28 28
32 15 9 9 10 7 5 6 8 5 3 3 4 5 9 8 13 9 5 7 13 21 23 25 26 23 23 18 16 12 7 10 10 11 16 16 11 7 7 11 17 20 22 25 37 38 35 32 31 29 30 31 30 29
3 4 3 4 7 7 9 8 6 4 3 5 4 4 7 10 7 5 5 6 17 27 29 33 28 24 20 20 21 19 11 10 14 13 14 14 12 11 8 2 2 15 22 23 27 36 38 33 36 34 36 32 34 34
7 11 12 12 7 5 3 6 7 8 6 7 6 5 5 3 4 4 5 13 23 37 40 35 32 26 18 26 24 20 12 10 13 11 9 10 11 7 5 2 4 4 11 18 15 28 26 24 33 45 48 49 38 40
4 4 6 9 5 2 4 6 5 4 7 7 6 6 3 5 6 4 9 17 34 42 28 25 25 21 20 18 24 15 8 9 13 10 6 11 15 10 10 10 10 6 11 15 17 15 17 17 21 21 26 31 33 39
5 3 1 2 3 6 4 4 4 5 5 5 9 6 7 5 3 9 11 24 43 35 24 23 20 20 20 19 24 20 15 9 8 8 9 12 6 5 8 11 12 14 15 14 14 13 13 14 13 13 14 15 18 23
4 3 4 4 6 7 6 4 2 3 6 10 6 6 7 5 9 25 37 42 39 38 45 37 28 16 12 16 18 13 9 6 8 12 12 8 7 10 9 8 12 11 8 9 11 10 9 7 16 11 11 18 24 24
5 11 4 5 4 4 2 3 3 2 4 9 9 6 8 22 37 39 41 47 48 37 33 29 24 14 16 16 15 11 7 5 7 7 4 5 8 9 10 7 6 4 4 6 8 11 14 18 21 25 23 22 24 25
3 10 5 5 2 3 2 9 12 11 8 13 16 18 19 14 34 40 36 37 35 35 28 26 22 16 18 17 15 13 12 11 11 10 9 4 1 2 4 7 7 9 10 12 12 13 14 16 18 20 22 23 16 13
9 11 4 2 4 9 9 8 10 13 15 19 10 21 20 10 12 12 23 31 28 27 26 26 27 25 21 19 12 9 7 9 5 2 1 2 5 6 4 4 7 7 6 7 12 15 14 13 12 16 17 20 29 31
6 8 5 5 4 4 7 8 7 6 6 6 10 13 17 5 8 9 16 25 23 21 24 21 21 14 13 13 10 8 7 7 5 2 1 3 6 6 7 7 7 9 11 13 15 19 21 24 25 25 30 30 27 26
Wind_Direction_850mb
284 284 284 286 287 291 295 300 309 306 303 298 307 315 309 312 290 298 298 302 266 259 286 262 262 259 276 267 267 315 329 3 303 349 344 346 308 338 295 283 340 319 330 333 318 315 338 348 329 353 304 308 321 328
280 283 281 280 279 281 287 288 302 299 292 293 302 308 299 303 294 266 283 292 288 271 273 294 283 268 257 269 274 288 260 297 270 314 350 305 310 316 312 321 5 344 358 307 328 324 307 317 318 345 346 347 354 357
276 275 277 278 275 278 277 282 286 293 284 288 300 299 289 299 294 261 267 282 299 288 310 288 261 308 312 294 274 232 265 249 257 280 300 278 288 325 320 348 306 297 32 270 304 22 322 337 2 3 7 19 26 40
286 276 274 274 276 278 278 283 282 292 272 283 290 286 286 293 298 279 269 269 261 291 287 282 309 304 300 292 281 282 278 266 282 299 270 277 278 60 318 315 313 322 315 314 272 309 333 1 9 16 31 38 46 58
293 284 286 277 277 274 286 270 273 281 268 278 282 270 277 286 291 284 288 277 241 237 289 294 310 180 305 304 307 300 293 272 273 254 228 262 319 334 337 259 25 332 326 347 320 321 357 4 18 30 45 44 53 65
286 288 287 288 277 272 273 262 265 260 261 263 261 259 271 276 273 305 293 226 215 247 291 297 305 267 331 341 326 318 300 265 243 249 260 75 348 333 330 335 293 340 338 338 291 336 24 35 41 50 55 56 63 67
280 280 283 282 282 274 271 251 258 246 252 247 244 257 259 255 254 228 179 163 239 295 262 289 287 283 321 329 322 297 296 260 275 292 343 130 22 8 21 355 318 338 353 19 18 355 45 51 45 61 68 68 76 80
281 278 279 276 282 269 265 255 249 240 234 226 234 245 245 236 257 262 170 203 213 245 255 273 278 299 325 304 313 332 314 289 285 354 48 25 15 346 12 324 349 356 23 57 68 81 85 79 83 81 82 80 77 76
283 277 284 279 279 266 257 241 231 216 208 208 220 226 221 233 227 186 187 233 251 220 269 248 271 286 317 285 285 292 283 266 320 147 64 101 1 24 298 326 2 18 57 82 88 90 92 83 85 87 87 82 85 86
279 273 281 284 275 257 242 224 224 195 185 195 192 179 223 199 158 161 208 203 189 214 229 250 246 265 296 301 258 275 249 258 213 78 108 59 174 305 356 7 79 54 91 102 80 79 95 92 103 100 96 94 98 99
277 274 277 280 267 246 224 213 192 183 183 177 178 207 180 157 167 183 204 210 183 223 217 230 230 265 269 237 292 226 300 317 262 116 110 117 22 55 12 108 107 96 110 101 96 101 104 105 113 110 102 99 98 99
275 279 277 270 255 232 209 194 183 186 180 174 173 154 165 188 185 205 199 199 213 236 207 205 233 226 264 226 248 214 275 332 274 121 122 87 74 51 40 129 118 100 102 98 101 97 100 105 110 110 108 105 104 102
272 276 273 249 228 208 199 187 182 184 164 157 184 173 197 177 181 207 200 191 207 204 199 198 261 233 233 226 242 241 266 262 235 62 73 94 68 114 100 135 129 110 79 98 96 100 110 114 116 114 110 107 104 103
275 274 259 230 210 198 183 176 182 168 158 171 163 201 220 191 210 192 203 185 199 183 175 205 257 245 231 227 207 236 198 150 240 176 83 190 270 159 147 161 175 161 101 129 118 116 119 120 119 118 119 120 119 114
279 260 217 202 192 184 169 175 172 165 164 176 180 225 213 218 210 201 209 237 195 181 187 217 215 240 243 256 222 310 215 357 329 61 176 181 236 174 176 186 193 173 146 134 133 133 132 130 127 123 122 124 127 128
234 178 181 184 178 161 164 167 164 165 179 210 215 234 235 198 195 190 193 201 181 180 166 140 154 217 245 259 232 223 256 124 176 145 165 177 167 176 170 146 152 160 154 144 141 142 140 137 133 130 127 127 130 129
175 173 178 163 154 158 162 153 153 196 206 216 227 216 208 244 177 164 190 187 175 172 186 165 205 185 301 244 221 185 350 101 167 169 184 186 181 151 163 159 152 163 163 155 147 146 146 145 140 136 133 131 131 129
176 175 156 151 153 151 155 151 160 186 233 228 212 207 201 210 175 197 199 186 169 183 172 192 150 215 248 251 94 131 119 117 149 154 154 157 176 186 182 169 160 157 157 157 159 160 161 159 152 143 142 139 135 131
167 154 152 157 152 125 152 182 190 239 222 221 222 206 180 203 220 216 212 196 199 189 180 183 188 202 239 193 281 178 162 142 151 154 160 169 179 185 179 178 173 167 165 164 165 170 170 168 164 160 158 155 153 151
132 145 153 154 153 130 137 174 196 243 220 209 196 184 171 191 203 211 214 203 196 190 194 207 214 194 191 166 313 173 161 153 153 153 159 169 178 188 191 187 181 175 175 172 167 164 167 168 172 175 173 170 171 172
134 148 156 162 169 204 202 189 206 230 220 196 179 180 190 197 196 179 174 177 188 206 204 209 207 199 166 143 167 128 168 164 164 171 181 182 189 195 196 192 197 189 186 182 181 177 179 179 176 176 179 180 177 177
144 158 169 181 233 236 239 217 228 215 195 181 178 182 174 187 191 206 196 193 217 221 225 227 248 200 179 160 154 145 147 180 180 162 155 160 172 183 186 187 187 194 196 192 184 181 177 172 174 172 171 172 174 179
148 148 161 197 209 216 269 203 232 213 209 169 148 172 185 186 187 175 200 215 221 218 211 222 190 171 164 157 140 131 137 150 156 168 162 152 143 139 144 158 184 196 201 217 213 193 191 181 179 178 175 177 178 179
142 163 191 195 201 220 201 219 215 226 193 193 207 186 155 148 163 209 215 195 199 199 191 171 156 147 150 146 150 135 116 131 133 139 164 156 157 182 209 238 233 222 219 218 219 213 206 202 195 197 196 194 192 190
108 193 187 198 217 218 207 180 185 185 205 197 223 179 148 163 196 194 203 214 183 171 159 151 158 168 153 156 154 147 118 106 162 154 152 172 186 187 181 128 108 210 210 213 204 207 209 212 210 214 214 219 217 216
217 204 202 203 171 228 168 164 177 196 201 190 217 115 138 150 170 231 195 202 176 168 169 176 173 168 171 169 165 150 147 135 120 136 163 180 177 165 154 198 223 207 184 173 197 203 210 217 217 225 227 219 224 225
223 207 214 218 234 285 275 238 244 213 195 200 166 133 168 215 208 246 189 165 169 165 162 171 178 173 172 168 167 151 140 123 132 112 85 168 162 163 139 98 89 122 156 159 159 178 202 221 232 239 231 230 241 212
275 303 221 130 220 230 262 258 206 205 191 157 123 164 184 221 158 161 161 148 155 165 147 146 129 143 152 154 157 154 144 145 143 140 115 109 119 174 172 157 147 128 138 144 148 156 163 173 177 191 205 214 222 232
271 242 215 236 225 231 240 243 253 225 163 170 157 162 172 242 133 146 147 153 157 148 137 131 126 121 136 134 140 154 156 183 187 171 158 137 114 98 136 147 166 172 174 181 195 206 195 247 220 211 265 277 274 270
245 199 226 233 233 228 344 214 340 131 132 134 117 123 131 105 110 126 144 145 143 140 135 127 124 137 135 145 140 147 164 198 195 185 195 145 140 142 144 134 130 131 150 179 204 223 243 259 252 258 263 285 276 266
219 196 241 238 285 350 23 100 89 97 103 78 84 96 96 100 100 113 115 127 131 134 124 113 110 113 133 123 126 143 142 142 123 103 74 66 325 320 282 253 241 239 235 229 235 266 267 263 252 255 261 267 263 254
190 203 230 161 87 79 79 60 56 83 106 124 102 101 101 90 72 80 140 153 148 140 128 118 104 107 110 98 97 132 139 136 140 170 225 287 313 322 278 257 260 277 270 269 269 254 254 267 270 259 267 274 259 260
188 190 197 128 107 69 52 58 40 95 110 96 119 101 112 65 84 101 123 142 147 148 140 131 115 109 135 126 110 102 94 82 73 51 26 327 296 313 345 334 319 308 297 288 281 281 273 265 277 273 263 268 270 271